SCP
2 2 2 1 1 1 1 1 1 1 1 1 1 1 1 0 0 0 0 0 0 0 1 0 0 0 0 0 0 0 0 0 0 0 0 0 0 0 0 0 0 0 0
1 2 2 1 1 1 1 1 1 1 1 1 1 1 1 0 0 0 0 0 0 0 0 0 0 0 0 0 0 0 0 0 0 0 0 0 0 0 0 0 0 0 0
1 1 2 1 1 1 1 1 1 1 1 1 1 1 1 0 0 0 0 0 0 0 0 0 0 0 0 0 0 0 0 0 0 0 0 0 0 0 0 0 0 0 0
1 1 1 1 1 1 1 1 1 1 1 1 1 1 0 0 0 0 0 0 0 0 0 0 0 0 0 0 0 0 0 0 0 0 0 0 0 0 0 0 0 0 0
1 1 1 1 1 1 0 0 0 1 1 1 1 1 0 0 0 0 0 0 0 0 0 0 0 0 0 0 0 0 0 0 0 0 0 0 0 0 0 0 0 0 0
0 0 1 1 1 1 0 0 0 0 1 1 1 1 0 0 0 0 0 0 0 0 0 0 0 0 0 0 0 0 0 0 0 0 0 0 0 0 0 0 0 0 0
0 0 0 0 1 1 0 0 0 0 1 1 1 1 0 0 0 0 0 0 0 0 0 0 0 0 0 0 0 0 0 0 0 0 0 0 0 0 0 0 0 0 0
0 0 0 0 1 1 0 0 0 0 0 0 1 0 0 0 0 0 0 0 0 0 0 0 0 0 0 0 0 0 0 0 0 0 0 0 0 0 0 0 0 0 0
0 0 0 0 1 1 0 0 0 1 0 0 0 0 0 0 0 0 0 0 0 0 0 0 0 0 0 0 0 0 0 0 0 0 0 0 0 0 0 0 0 0 0
0 0 0 0 0 0 0 0 1 1 0 0 0 0 0 0 0 0 0 0 0 0 0 0 0 0 0 0 0 0 0 0 0 0 0 0 0 0 0 0 0 0 0
0 0 0 0 0 0 0 1 1 1 1 0 0 0 0 0 0 0 0 0 0 0 0 0 0 0 0 0 0 0 0 0 0 0 0 0 0 0 0 0 0 0 0
0 0 0 0 0 0 0 1 1 1 1 1 0 0 0 0 0 0 0 0 0 0 0 0 0 0 0 0 0 0 0 0 0 0 0 0 0 0 0 0 0 0 0
0 0 0 0 0 0 0 1 1 1 1 1 0 0 0 0 0 0 0 0 0 0 0 0 0 0 0 0 0 0 0 0 0 0 0 0 0 0 0 0 0 0 0
0 0 0 0 0 0 0 1 1 1 1 1 1 0 0 0 0 0 0 0 0 0 0 0 0 0 0 0 0 0 0 0 0 0 0 0 0 0 0 0 0 0 0
0 0 0 0 0 0 0 1 1 1 1 1 1 1 1 0 0 0 0 0 0 0 0 0 0 0 0 0 0 0 0 0 0 0 0 0 0 0 0 0 0 0 0
0 0 0 0 0 0 0 0 0 0 0 1 1 1 1 0 0 0 0 0 0 0 0 0 0 0 0 0 0 0 0 0 0 0 0 0 0 0 0 0 0 0 0
0 0 0 0 0 0 0 0 0 0 0 0 1 1 1 1 0 0 0 0 0 0 0 0 0 0 0 0 0 0 0 0 0 0 0 0 0 0 0 0 0 0 0
0 0 0 0 0 0 0 0 0 0 0 0 0 1 1 1 1 0 0 0 0 0 0 0 0 0 0 0 0 0 0 0 0 0 0 0 0 0 0 0 0 0 0
0 0 0 0 0 0 0 0 0 0 0 0 0 0 1 1 1 0 0 0 0 0 0 0 0 0 0 0 0 0 0 0 0 0 0 0 0 0 0 0 0 0 0
0 0 0 0 0 0 0 0 0 0 0 0 0 0 1 1 1 1 0 0 0 0 0 0 0 0 0 0 0 0 0 0 0 0 0 0 0 0 0 0 0 0 0
0 0 0 0 0 0 0 0 0 0 0 0 0 0 1 1 1 1 0 0 0 0 0 0 0 0 0 0 0 0 0 0 0 0 0 0 0 0 0 0 0 0 0
0 0 0 0 0 0 0 0 0 0 0 0 0 0 0 1 1 1 0 0 0 0 0 0 0 0 0 0 0 0 0 0 0 0 0 0 0 0 0 0 0 0 0
0 0 0 0 0 0 0 0 0 0 0 0 0 0 0 1 1 1 1 0 0 0 0 0 0 0 0 0 0 0 0 0 0 0 0 0 0 0 0 0 0 0 0
0 0 0 0 0 0 0 0 0 0 0 0 0 0 0 1 1 1 1 0 0 0 0 0 0 0 0 0 0 0 0 0 0 0 0 0 0 0 0 0 0 0 0
0 0 0 0 0 0 0 0 0 0 0 0 0 0 0 1 1 1 1 1 0 0 0 0 0 0 0 0 0 0 0 0 0 0 0 0 0 0 0 0 0 0 0
0 0 0 0 0 0 0 0 0 0 0 0 0 0 0 0 1 1 1 1 0 0 0 0 0 0 0 0 0 0 0 0 0 0 0 0 0 0 0 0 0 0 0
Wind_Speed
4 3 4 4 4 4 5 5 6 8 8 8 7 8 8 7 6 4 3 8 9 11 13 13 12 11 10 9 8 7 6 5 4 3 3 3 3 3 4 5 6 7 7
4 4 4 5 5 5 5 5 6 8 7 7 7 8 8 7 6 5 4 5 8 10 12 12 12 11 10 9 8 7 6 4 3 2 2 2 2 3 4 4 5 7 8
5 5 4 5 5 5 6 5 6 6 7 7 7 7 7 7 6 6 5 4 4 7 10 11 11 11 10 9 8 7 6 4 3 2 1 0 1 2 3 4 5 7 8
6 5 5 5 6 5 6 6 6 6 7 7 7 6 5 5 6 6 5 4 4 3 6 9 10 10 10 9 8 7 6 5 3 2 2 1 1 2 4 5 6 7 8
7 6 5 5 6 6 6 7 6 6 7 7 6 6 5 5 5 6 5 5 5 4 3 6 8 9 9 9 8 7 6 5 4 3 3 2 2 3 5 6 7 8 8
8 7 6 7 7 6 6 7 7 6 6 7 6 5 4 4 4 5 6 5 4 5 4 4 3 4 7 8 8 7 7 6 5 4 3 3 3 4 5 6 7 8 8
8 7 6 7 8 7 8 8 7 8 6 6 5 4 2 2 3 4 4 4 5 5 5 4 3 3 3 6 7 7 7 6 5 4 4 4 4 5 5 6 7 7 8
9 7 8 7 8 8 9 9 9 6 5 7 6 7 4 2 2 4 4 5 5 4 5 5 4 4 3 2 3 5 6 6 6 5 4 4 4 5 6 7 7 7 8
9 9 9 8 9 9 9 11 11 9 8 7 7 7 7 6 3 3 5 5 5 5 5 4 5 5 5 3 3 4 5 5 5 5 5 4 4 5 6 6 6 7 8
9 9 10 10 10 9 9 11 11 9 11 9 7 3 3 6 6 4 3 4 5 6 6 5 5 5 5 4 4 5 5 5 6 5 5 4 4 5 5 6 6 7 8
9 9 10 10 11 10 10 11 11 11 10 10 8 5 3 2 4 5 5 5 4 4 5 5 5 4 5 4 4 5 6 5 6 5 4 4 4 5 5 5 6 7 8
7 9 10 11 11 10 11 11 11 13 11 9 7 6 6 6 6 4 5 6 5 3 3 3 4 4 4 4 5 7 7 6 5 4 3 3 3 3 4 5 6 8 9
6 9 9 10 10 11 11 10 11 12 13 12 10 7 6 5 5 4 5 5 3 2 2 2 4 4 4 4 4 7 7 6 5 4 3 2 1 2 3 5 6 7 9
8 8 10 10 11 12 12 10 10 11 11 12 10 9 6 6 5 5 5 6 5 2 2 3 3 4 4 4 5 7 5 7 6 5 3 2 1 1 3 4 5 7 8
7 9 10 10 10 11 12 11 9 12 11 11 10 10 7 6 6 4 4 6 7 6 5 4 3 4 4 4 6 5 4 6 6 5 4 3 2 1 2 3 5 6 7
8 9 10 10 10 10 12 11 10 11 12 11 9 10 8 6 6 5 5 4 4 5 4 4 3 3 4 4 7 5 4 6 6 5 4 3 2 1 1 2 4 6 7
8 9 10 10 10 10 12 11 11 12 13 12 11 11 10 8 7 6 5 5 4 4 4 2 2 3 4 5 4 4 4 3 3 4 4 4 2 1 1 2 4 5 6
9 9 10 10 10 11 11 12 13 13 14 14 13 12 11 9 9 8 7 6 5 4 5 5 3 3 3 4 4 4 3 3 2 3 4 3 2 1 1 2 3 4 5
8 8 9 10 10 10 11 12 13 13 14 14 14 13 12 12 11 8 8 7 5 4 4 6 5 3 3 3 4 3 3 2 2 2 3 2 2 1 1 1 3 3 4
5 7 8 9 10 10 10 11 11 11 12 12 12 12 12 13 13 11 9 8 7 5 5 6 5 4 3 3 4 3 2 1 1 1 1 1 1 1 1 1 2 3 4
4 5 7 7 8 8 9 10 10 10 11 11 11 11 11 13 14 12 9 9 9 7 6 6 5 4 4 5 4 3 3 2 1 1 1 0 1 0 0 1 2 2 4
3 3 5 6 6 6 9 11 11 9 10 12 12 10 11 13 14 15 15 14 13 11 9 7 6 6 6 5 4 5 4 3 2 1 2 1 1 1 1 1 2 2 4
3 2 3 4 5 5 9 10 11 9 10 11 11 11 9 10 13 11 12 13 11 12 12 9 9 8 8 8 8 6 5 4 3 2 2 1 0 1 1 1 2 2 3
2 1 1 3 4 5 7 9 10 9 8 9 10 11 12 11 11 13 11 9 7 6 8 7 8 8 7 8 8 7 6 5 4 1 2 2 0 1 1 1 2 2 3
2 1 1 2 3 3 5 7 9 7 7 8 8 10 12 12 16 17 13 11 8 5 6 8 8 9 12 13 11 8 6 5 2 1 1 2 1 0 1 1 2 3 4
2 1 1 1 2 3 4 6 7 6 8 7 7 9 13 15 18 19 14 13 11 8 8 8 9 10 9 10 11 7 7 5 3 2 2 2 1 1 1 1 1 1 2
Wind_Direction
198 201 196 195 190 178 176 172 173 166 160 161 167 165 167 168 167 168 176 179 179 177 172 167 162 160 155 151 149 147 148 143 133 122 106 85 59 40 29 21 14 4 357
197 195 206 195 193 183 181 176 174 171 165 163 168 171 168 168 170 169 167 175 176 176 176 172 168 166 162 160 160 160 162 158 150 139 113 76 43 16 8 4 357 351 347
198 197 202 197 192 184 178 173 168 170 167 165 165 170 168 170 171 172 167 165 172 179 178 177 175 175 171 169 171 172 172 173 172 173 167 137 346 344 345 344 342 339 336
199 198 201 201 189 184 179 174 170 174 173 169 167 168 167 170 171 172 169 165 164 171 180 180 182 180 179 180 182 181 182 187 195 207 226 266 302 321 326 328 329 329 330
203 200 204 204 187 185 185 179 175 174 173 169 168 163 162 170 173 171 174 172 171 170 172 180 181 183 186 187 190 190 191 197 210 223 245 263 293 310 318 320 324 328 331
210 201 202 202 191 185 188 181 174 175 174 166 162 157 158 163 173 174 178 175 176 176 172 170 173 184 189 194 196 197 199 206 216 230 244 265 288 303 310 318 326 331 334
214 204 202 199 196 190 190 182 172 171 174 159 143 140 104 136 182 185 176 174 181 180 171 169 165 161 184 199 200 204 210 216 221 228 244 261 282 298 310 317 325 328 333
216 211 202 202 201 190 188 186 172 168 175 171 158 147 144 166 214 199 186 184 184 178 180 177 172 170 169 173 199 209 222 229 230 238 248 262 279 296 307 316 323 328 331
216 213 209 204 203 192 190 189 179 175 176 182 176 163 161 183 167 198 200 191 183 184 189 180 180 179 175 171 183 211 222 233 239 243 247 259 278 294 305 314 322 327 333
220 217 211 207 206 196 191 194 187 179 175 181 185 192 171 151 152 164 191 193 189 191 189 185 183 184 180 177 188 200 211 226 236 241 246 262 277 293 306 316 326 333 336
219 220 214 209 205 199 193 195 189 184 185 187 181 171 156 146 138 150 174 182 188 199 189 186 184 185 184 179 185 200 203 212 228 237 250 262 277 291 304 318 327 331 333
223 219 218 213 205 200 196 197 193 191 191 189 186 177 168 165 168 156 165 179 183 186 182 182 186 187 182 180 190 194 200 208 218 224 238 257 276 295 314 325 331 334 335
228 220 218 212 208 203 198 196 196 197 194 189 189 188 181 179 163 153 150 158 157 154 168 193 195 186 182 176 187 191 197 199 204 207 207 223 273 311 319 325 330 334 337
228 221 219 211 211 205 199 196 199 200 197 193 190 187 181 179 170 165 160 155 153 157 179 200 181 188 183 175 182 179 188 193 192 189 187 190 220 304 318 326 331 332 335
225 216 220 212 210 206 200 195 203 200 196 195 190 187 183 181 174 170 166 163 160 172 195 193 182 182 179 169 173 169 171 186 183 185 184 188 206 250 318 334 334 334 335
222 215 218 211 207 208 202 196 203 200 196 197 189 186 185 179 172 165 170 171 167 160 177 180 177 159 165 168 171 162 171 172 182 186 186 185 187 213 310 331 329 331 332
222 215 217 209 206 209 202 197 204 197 195 196 190 186 187 177 172 169 169 169 167 151 160 153 128 137 150 158 152 149 152 158 172 183 182 175 178 206 299 317 323 328 334
223 215 213 208 207 209 202 199 202 198 194 194 191 184 184 179 174 171 172 174 174 164 157 162 150 152 149 158 152 149 143 143 152 172 168 169 176 213 288 306 322 328 335
226 211 208 206 205 206 201 201 201 197 194 193 189 185 181 177 179 175 173 173 169 163 156 154 152 141 131 140 138 132 124 121 131 150 157 171 186 213 298 315 325 332 339
232 213 211 208 206 205 200 200 197 195 193 191 188 185 182 181 181 176 175 173 164 157 154 148 145 140 137 136 138 144 142 137 135 117 132 144 159 123 54 357 337 337 340
244 224 209 209 206 204 197 196 193 190 190 187 184 185 184 177 178 177 174 170 166 164 159 156 154 145 153 158 169 156 154 136 126 124 119 145 126 98 12 342 339 329 339
252 237 209 203 205 209 199 198 194 187 187 184 182 181 176 168 169 171 169 169 170 169 172 169 170 172 176 170 150 149 142 145 192 168 142 200 130 173 259 261 314 339 339
272 240 213 203 203 199 199 195 190 188 188 185 180 175 171 169 166 164 162 163 167 168 170 171 172 179 173 172 159 155 160 154 160 154 136 173 151 219 252 304 327 347 355
267 250 233 211 200 199 197 187 176 181 184 185 181 175 168 167 168 162 158 158 159 166 170 166 169 171 164 159 161 154 143 113 89 89 118 149 179 265 323 335 324 355 2
295 268 252 211 196 193 187 185 176 172 175 178 178 173 167 167 165 158 157 155 146 135 118 125 129 129 132 137 136 124 128 126 126 156 123 125 142 323 322 317 322 351 359
294 305 283 230 200 197 192 188 185 172 171 171 170 168 168 166 165 162 162 159 156 151 134 114 107 106 114 128 133 139 148 142 133 165 170 129 130 98 340 313 315 332 354